Date String (YYYY-MM-DD hh:mm:ss) UTC,Instrument flags,Ambient pressure (hPa),Sample flow (lpm),Bypass flow (lpm),Sample temperature (°C),Ambient temperature (°C),ASC tube jacket temperature (°C),LED temperature (°C),Box temperature (°C),Sample RH (%),Span deviation,Mass concentration (μg/m³),Mass concentration (μg/m³),Mass concentration (μg/m³)
DateTimeUTC,F1_M11,P_M11,Q1_M11,Q2_M11,T1_M11,T2_M11,T3_M11,T4_M11,T5_M11,U1_M11,ZSPAN_M11,X0_M11,X2_M11,X1_M11
2022-09-29 12:00:00,,0830.8,5.02,0.00,30.3,28.9,00.0,39.1,32.1,14.4,0000.0,0009.35,0004.19,0003.70
2022-09-29 12:01:00,,0830.7,4.99,0.00,30.3,29.0,00.0,39.1,32.1,14.3,0000.0,0009.32,0004.17,0003.71
2022-09-29 12:02:00,,0830.7,5.00,0.00,30.3,29.0,00.0,39.1,32.1,14.4,0000.0,0009.84,0004.19,0003.73
2022-09-29 12:03:00,,0830.7,5.01,0.00,30.4,29.0,00.0,39.1,32.2,14.3,0000.0,0009.47,0004.18,0003.74
2022-09-29 12:04:00,,0830.6,5.01,0.00,30.4,29.0,00.0,39.1,32.2,14.3,0000.0,0009.80,0004.18,0003.74
2022-09-29 12:05:00,,0830.7,4.99,0.00,30.4,29.0,00.0,39.1,32.2,14.3,0000.0,0008.95,0004.17,0003.74
2022-09-29 12:06:00,,0830.7,4.99,0.00,30.4,29.1,00.0,39.1,32.2,14.3,0000.0,0008.68,0004.21,0003.74
2022-09-29 12:07:00,,0830.7,5.01,0.00,30.4,29.1,00.0,39.1,32.2,14.5,0000.0,0008.85,0004.22,0003.74
2022-09-29 12:08:00,,0830.7,4.99,0.00,30.4,29.1,00.0,39.1,32.3,14.4,0000.0,0009.05,0004.22,0003.73
2022-09-29 12:09:00,,0830.7,5.01,0.00,30.4,29.1,00.0,39.1,32.3,14.5,0000.0,0009.06,0004.21,0003.73
2022-09-29 12:10:00,,0830.7,5.00,0.00,30.4,29.1,00.0,39.2,32.3,14.3,0000.0,0009.09,0004.20,0003.72
2022-09-29 12:11:00,,0830.6,5.00,0.00,30.4,29.1,00.0,39.2,32.3,14.2,0000.0,0009.14,0004.19,0003.72
2022-09-29 12:12:00,,0830.6,4.99,0.00,30.5,29.1,00.0,39.2,32.3,14.1,0000.0,0009.41,0004.19,0003.72
2022-09-29 12:13:00,,0830.6,5.01,0.00,30.5,29.1,00.0,39.2,32.3,14.1,0000.0,0009.47,0004.18,0003.72
2022-09-29 12:14:00,,0830.6,4.99,0.00,30.5,29.2,00.0,39.2,32.3,14.1,0000.0,0009.56,0004.17,0003.71
2022-09-29 12:15:00,,0830.6,5.01,0.00,30.5,29.2,00.0,39.2,32.3,14.1,0000.0,0009.46,0004.17,0003.70
2022-09-29 12:16:00,,0830.6,5.01,0.00,30.5,29.2,00.0,39.2,32.3,14.1,0000.0,0009.58,0004.17,0003.70
2022-09-29 12:17:00,,0830.6,4.98,0.00,30.5,29.2,00.0,39.2,32.3,14.1,0000.0,0009.42,0004.16,0003.70
2022-09-29 12:18:00,,0830.7,5.01,0.00,30.5,29.2,00.0,39.2,32.3,14.1,0000.0,0009.68,0004.16,0003.70
2022-09-29 12:19:00,,0830.7,5.00,0.00,30.5,29.2,00.0,39.2,32.3,14.1,0000.0,0009.61,0004.17,0003.70
2022-09-29 12:20:00,,0830.6,4.99,0.00,30.5,29.2,00.0,39.3,32.4,14.1,0000.0,0010.03,0004.19,0003.70
2022-09-29 12:21:00,,0830.6,5.01,0.00,30.5,29.2,00.0,39.3,32.4,14.3,0000.0,0010.48,0004.23,0003.71
2022-09-29 12:22:00,,0830.6,4.99,0.00,30.6,29.2,00.0,39.3,32.4,14.4,0000.0,0011.30,0004.24,0003.71
2022-09-29 12:23:00,,0830.7,5.00,0.00,30.6,29.2,00.0,39.3,32.4,14.2,0000.0,0011.21,0004.24,0003.71
2022-09-29 12:24:00,,0830.7,5.00,0.00,30.6,29.2,00.0,39.3,32.4,14.1,0000.0,0010.64,0004.24,0003.70
2022-09-29 12:25:00,,0830.7,5.00,0.00,30.6,29.2,00.0,39.3,32.4,14.0,0000.0,0010.90,0004.27,0003.69
2022-09-29 12:26:00,,0830.7,5.00,0.00,30.6,29.2,00.0,39.3,32.4,14.0,0000.0,0010.64,0004.28,0003.69
2022-09-29 12:27:00,,0830.7,4.98,0.00,30.6,29.2,00.0,39.3,32.4,14.0,0000.0,0010.56,0004.33,0003.69
2022-09-29 12:28:00,,0830.7,5.02,0.00,30.6,29.2,00.0,39.3,32.4,14.1,0000.0,0010.54,0004.31,0003.67
2022-09-29 12:29:00,,0830.8,5.00,0.00,30.6,29.2,00.0,39.3,32.4,14.2,0000.0,0010.08,0004.28,0003.66
2022-09-29 12:30:00,,0830.8,4.98,0.00,30.6,29.3,00.0,39.4,32.4,14.1,0000.0,0009.95,0004.25,0003.65
2022-09-29 12:31:00,,0830.8,5.00,0.00,30.6,29.3,00.0,39.4,32.4,14.1,0000.0,0009.82,0004.24,0003.64
2022-09-29 12:32:00,,0830.8,5.00,0.00,30.6,29.3,00.0,39.4,32.4,13.9,0000.0,0009.35,0004.18,0003.63
2022-09-29 12:33:00,,0830.8,5.00,0.00,30.6,29.3,00.0,39.4,32.5,13.9,0000.0,0008.60,0004.18,0003.62
2022-09-29 12:34:00,,0830.8,4.99,0.00,30.7,29.3,00.0,39.4,32.5,13.9,0000.0,0008.55,0004.17,0003.61
2022-09-29 12:35:00,,0830.8,5.01,0.00,30.7,29.3,00.0,39.4,32.5,13.9,0000.0,0008.46,0004.16,0003.61
2022-09-29 12:36:00,,0830.8,4.99,0.00,30.7,29.3,00.0,39.4,32.5,14.0,0000.0,0008.25,0004.14,0003.60
2022-09-29 12:37:00,,0830.8,5.00,0.00,30.7,29.3,00.0,39.4,32.5,14.0,0000.0,0008.14,0004.11,0003.59
2022-09-29 12:38:00,,0830.7,5.01,0.00,30.7,29.3,00.0,39.4,32.5,14.0,0000.0,0008.04,0004.05,0003.57
2022-09-29 12:39:00,,0830.8,5.00,0.00,30.7,29.4,00.0,39.4,32.5,13.9,0000.0,0008.06,0004.04,0003.56
2022-09-29 12:40:00,,0830.8,5.00,0.00,30.7,29.4,00.0,39.4,32.5,13.9,0000.0,0008.13,0004.06,0003.55
2022-09-29 12:41:00,,0830.8,5.00,0.00,30.7,29.3,00.0,39.5,32.5,13.9,0000.0,0008.09,0004.05,0003.54
2022-09-29 12:42:00,,0830.7,5.00,0.00,30.7,29.3,00.0,39.5,32.5,14.0,0000.0,0007.98,0004.03,0003.53
2022-09-29 12:43:00,,0830.6,5.00,0.00,30.7,29.4,00.0,39.5,32.5,14.1,0000.0,0008.14,0004.05,0003.53
2022-09-29 12:44:00,,0830.6,4.99,0.00,30.7,29.4,00.0,39.5,32.5,14.2,0000.0,0008.13,0004.04,0003.52
2022-09-29 12:45:00,,0830.6,5.01,0.00,30.7,29.4,00.0,39.5,32.6,14.3,0000.0,0008.03,0004.02,0003.51
2022-09-29 12:46:00,,0830.5,5.00,0.00,30.8,29.4,00.0,39.5,32.6,14.4,0000.0,0008.41,0004.00,0003.50
2022-09-29 12:47:00,,0830.5,4.99,0.00,30.8,29.4,00.0,39.5,32.6,14.3,0000.0,0008.44,0003.99,0003.50
2022-09-29 12:48:00,,0830.6,5.01,0.00,30.8,29.3,00.0,39.5,32.6,14.0,0000.0,0009.12,0003.96,0003.48
2022-09-29 12:49:00,,0830.6,5.01,0.00,30.8,29.3,00.0,39.5,32.6,14.6,0000.0,0009.06,0003.94,0003.46
2022-09-29 12:50:00,,0830.6,4.99,0.00,30.8,29.3,00.0,39.5,32.6,14.7,0000.0,0009.27,0003.95,0003.46
2022-09-29 12:51:00,,0830.6,5.01,0.00,30.8,29.3,00.0,39.5,32.6,14.4,0000.0,0009.38,0003.94,0003.46
2022-09-29 12:52:00,,0830.6,5.00,0.00,30.8,29.4,00.0,39.5,32.6,14.3,0000.0,0009.36,0003.91,0003.46
2022-09-29 12:53:00,,0830.6,4.99,0.00,30.8,29.4,00.0,39.5,32.6,14.3,0000.0,0009.17,0003.91,0003.45
2022-09-29 12:54:00,,0830.6,5.01,0.00,30.8,29.4,00.0,39.5,32.6,14.3,0000.0,0008.89,0003.88,0003.44
2022-09-29 12:55:00,,0830.6,4.99,0.00,30.8,29.4,00.0,39.5,32.6,14.3,0000.0,0008.82,0003.86,0003.44
2022-09-29 12:56:00,,0830.6,5.01,0.00,30.8,29.4,00.0,39.5,32.6,14.5,0000.0,0008.90,0003.87,0003.45
2022-09-29 12:57:00,,0830.6,5.01,0.00,30.8,29.4,00.0,39.6,32.6,14.3,0000.0,0008.58,0003.87,0003.45
2022-09-29 12:58:00,,0830.7,4.99,0.00,30.8,29.4,00.0,39.6,32.6,14.2,0000.0,0008.26,0003.87,0003.44
2022-09-29 12:59:00,,0830.8,5.01,0.00,30.8,29.5,00.0,39.6,32.6,14.3,0000.0,0007.52,0003.85,0003.45
